Regional Weather Roundup
Issued by NWS

Home | Current Version | Previous Version | Graphics & Text | Print | Product List | Glossary On
Versions: 1 2 3 4 5 6 7 8 9 10 11 12 13 14 15 16 17 18 19 20 21 22 23 24 25 26 27 28 29 30 31 32 33 34 35 36 37 38 39 40 41 42 43 44 45 46 47 48 49 50
000
ASUS43 KMKX 182100
RWRWI

WISCONSIN REGIONAL WEATHER ROUNDUP
NATIONAL WEATHER SERVICE MILWAUKEE/SULLIVAN WI
400 PM CDT SAT APR 18 2015

NOTE: "FAIR" INDICATES FEW OR NO CLOUDS BELOW 12,000 FEET WITH NO
SIGNIFICANT WEATHER AND/OR OBSTRUCTIONS TO VISIBILITY.

WIZ001-002-006>008-014>016-023>028-182200-
NORTHWEST WISCONSIN

CITY           SKY/WX    TMP DP  RH WIND       PRES   REMARKS
SUPERIOR ARPT  SUNNY     41  34  74 E21G31    30.15F
ASHLAND        SUNNY     48  34  58 NE18      30.16F
HAYWARD        SUNNY     67  24  19 E12G20    30.05F
SIREN          SUNNY     69  29  22 E9        30.03F
CUMBERLAND     PTSUNNY   66  30  26 SE12      30.03F
RICE LAKE      PTSUNNY   69  31  24 SE14      30.05F
CHETEK         PTSUNNY   67  36  32 E12G24    30.04F
LADYSMITH      MOSUNNY   69  30  23 SE12      30.07F
EAU CLAIRE     NOT AVBL
MENOMONIE      PTSUNNY   71  32  23 NE15      30.01F
NEW RICHMOND   PTSUNNY   70  30  22 E12       30.01F
OSCEOLA        PTSUNNY   71  31  23 E9G17     30.03F
$$

WIZ003>005-009-010-017-018-182200-
NORTH CENTRAL WISCONSIN

CITY           SKY/WX    TMP DP  RH WIND       PRES   REMARKS
MANITOWISH WTR SUNNY     62  22  21 SE9       30.11F
ARBOR VITAE    SUNNY     62  17  17 SE15      30.11F HAZE
WOODRUFF       SUNNY     62  17  17 SE15      30.11F HAZE
RHINELANDER    SUNNY     63  21  20 SE12G20   30.12F
EAGLE RIVER    SUNNY     62  13  15 SE13G18   30.13F
LAND O LAKES   SUNNY     61  18  19 E14       30.14F
PHILLIPS       SUNNY     65  26  23 SE9G16    30.08F
TOMAHAWK       SUNNY     65  22  19 SE5       30.12S
MEDFORD        PTSUNNY   61  28  29 SE12G17   30.09F
MERRILL        MOSUNNY   64  28  25 SE9G18    30.11F
$$

WIZ029-030-035-036-043>047-182200-
CENTRAL WISCONSIN

CITY           SKY/WX    TMP DP  RH WIND       PRES   REMARKS
WAUSAU         PTSUNNY   60  14  16 SE15G24   30.10F
MOSINEE        SUNNY     61  25  25 E14G23    30.12F
MARSHFIELD     PTSUNNY   65  25  22 E17G24    30.08F
STEVENS POINT  PTSUNNY   60  27  28 E14G22    30.12F
WAUPACA        MOSUNNY   64  25  23 E15G22    30.14F
WAUTOMA        NOT AVBL
WISC RAPIDS    MOSUNNY   64  29  26 E18G26    30.10F
CAMP DOUGLAS   NOT AVBL
$$

WIZ011>013-019>022-031-037>040-048>050-182200-
NORTHEAST WISCONSIN

CITY           SKY/WX    TMP DP  RH WIND       PRES   REMARKS
ANTIGO         SUNNY     61  25  25 SE13G18   30.14F
SHAWANO        MOSUNNY   60  26  27 E13       30.16F
OCONTO         MOSUNNY   56  29  35 NE12      30.18F
STURGEON BAY   MOSUNNY   55  23  28 NE14      30.20F
GREEN BAY      MOSUNNY   57  34  41 NE17      30.16F
MANITOWOC      NOT AVBL
APPLETON       MOSUNNY   57  28  33 NE14G21   30.14F
CLINTONVILLE   MOSUNNY   59  25  27 E13G20    30.14F
OSHKOSH        SUNNY     61  31  32 NE12      30.11F
$$

WIZ032>034-041-042-053>061-182200-
SOUTHWEST WISCONSIN

CITY           SKY/WX    TMP DP  RH WIND       PRES   REMARKS
LA CROSSE      MOSUNNY   75  36  24 SE16G23   29.98F
SPARTA         SUNNY     71  30  22 E17       30.03F
VIROQUA        SUNNY     71  37  28 E14G24    30.01F
BOSCOBEL       PTSUNNY   73  37  27 E13G18    29.99F
PRAIRIE DU CHI PTSUNNY   73  36  25 E18G25    29.97F
PLATTEVILLE    MOSUNNY   73  37  27 E17G24    30.00F
$$

WIZ056-057-062-063-064-067-068-182200-
SOUTH CENTRAL WISCONSIN

CITY           SKY/WX    TMP DP  RH WIND       PRES   REMARKS
REEDSBURG      SUNNY     67  37  32 E14       30.05F
BARABOO/DELLS  SUNNY     66  32  28 E15G23    30.06F
LONE ROCK      NOT AVBL
MINERAL POINT  SUNNY     72  32  23 E16G25    30.01F
MADISON        PTSUNNY   68  32  26 E13G23    30.05F
MIDDLETON      SUNNY     69  31  24 E16       30.06F
WATERTOWN      SUNNY     67  29  23 NE10G17   30.06F
MONROE         MOSUNNY   70  34  26 E17G23    30.02F
JANESVILLE     SUNNY     72  27  18 E17       30.03F
$$

WIZ051-052-058>065-066-070>072-182200-
SOUTHEAST WISCONSIN

CITY           SKY/WX    TMP DP  RH WIND       PRES   REMARKS
MILWAUKEE      MOSUNNY   47  34  60 N22G30    30.10F
WAUKESHA       SUNNY     59  36  41 NE9G17    30.09F
MILWAUKEE/TIMM SUNNY     54  30  40 NE14G21   30.11F
RACINE         SUNNY     47  35  63 N25       30.10F
BURLINGTON     SUNNY     62  36  38 NE14      30.06F
KENOSHA        SUNNY     57  37  47 NE17      30.07F
FOND DU LAC    SUNNY     64  27  24 NE14G24   30.11F
SHEBOYGAN      SUNNY     55  35  47 NE16      30.13F
WEST BEND      SUNNY     57  32  38 NE14      30.10F
JUNEAU         SUNNY     65  29  26 NE13G20   30.09F
$$

LSZ147-162-182200-
LAKE SUPERIOR

STATION/POSITION TIME  TEMP    WIND        PRES    WAVE
                       AIR SEA DIR/SP/G            HT/PER
                 (UTC) (F)     (DEG/KT/KT) (MB)    (FT/S)
DEVILS ISLAND    2000   36      60/ 18/ 20 1023.7F
PORT WING        2040   39      40/ 22/ 27 1020.7F
SAXON HARBOR     2000   40      10/ 12/ 14 1021.0F
$$

LMZ867-665-643>646-182200-
LAKE MICHIGAN

STATION/POSITION TIME  TEMP    WIND        PRES    WAVE
                       AIR SEA DIR/SP/G            HT/PER
                 (UTC) (F)     (DEG/KT/KT) (MB)    (FT/S)
CHAMBERS ISLAND  2000   46      30/  8/ 10 1022.7F
NORTHPORT PIER   2000   45      90/  6/  8 1022.7F
SISTER BAY       1847   58      20/  9/ 17   N/A
KEWAUNEE LAKESHO 2000   48      30/ 14/ 19 1021.3S
SHEBOYGAN LAKESH 2000   41      10/ 20/ 23 1021.4F
PORT WASHINGTON  2040   49      50/ 14/ 18 1020.3F
MILWAUKEE LAKESH 2000   43      10/ 18/ 21   N/A
KENOSHA   LAKESH 2000   44      20/ 20/ 24 1018.6F
$$

TC  - TEMPERATURE IN CELSIUS
VSB - VISIBILITY IN STATUTE MILES
WCI - WIND CHILL INDEX
HX  - HEAT INDEX




USA.gov is the U.S. government's official web portal to all federal, state and local government web resources and services.